| time (UTC) | temp F | wind direction | speed knots | gust knots | rain 1hr in | rain 24hr in | rain mn in | humidity % | barometer mb |
| 20260510164216 | 61 | 45 | 9.6 | 13.9 | 0.00 | 0.00 | 0.00 | 46 | 1021.6 |
| 20260510163216 | 61 | 45 | 10.4 | 13.9 | 0.00 | 0.00 | 0.00 | 48 | 1021.7 |
| 20260510162236 | 60 | 45 | 7.8 | 10.4 | 0.00 | 0.00 | 0.00 | 51 | 1021.7 |
| 20260510161216 | 59 | 23 | 8.7 | 12.2 | 0.00 | 0.00 | 0.00 | 51 | 1021.4 |
| 20260510160236 | 58 | 23 | 9.6 | 13.0 | 0.00 | 0.00 | 0.00 | 49 | 1021.3 |
| 20260510155216 | 59 | 45 | 11.3 | 14.8 | 0.00 | 0.00 | 0.00 | 50 | 1021.0 |
| 20260510154216 | 59 | 45 | 8.7 | 12.2 | 0.00 | 0.00 | 0.00 | 51 | 1021.2 |
| 20260510153236 | 59 | 45 | 8.7 | 11.3 | 0.00 | 0.00 | 0.00 | 51 | 1021.1 |
| 20260510152216 | 58 | 45 | 7.8 | 11.3 | 0.00 | 0.00 | 0.00 | 52 | 1021.2 |
| 20260510151216 | 58 | 45 | 6.1 | 10.4 | 0.00 | 0.00 | 0.00 | 54 | 1021.3 |
| 20260510150216 | 57 | 45 | 7.8 | 11.3 | 0.00 | 0.00 | 0.00 | 54 | 1021.1 |
| 20260510145216 | 57 | 45 | 5.2 | 8.7 | 0.00 | 0.00 | 0.00 | 56 | 1021.4 |
| 20260510144216 | 57 | 45 | 5.2 | 7.0 | 0.00 | 0.00 | 0.00 | 56 | 1021.7 |
| 20260510143216 | 57 | 45 | 5.2 | 7.8 | 0.00 | 0.00 | 0.00 | 57 | 1021.5 |
| 20260510142216 | 57 | 45 | 5.2 | 8.7 | 0.00 | 0.00 | 0.00 | 56 | 1021.4 |
| 20260510141216 | 58 | 45 | 3.5 | 5.2 | 0.00 | 0.00 | 0.00 | 56 | 1021.4 |
| 20260510140216 | 58 | 45 | 7.0 | 8.7 | 0.00 | 0.00 | 0.00 | 57 | 1021.4 |
| 20260510135216 | 57 | 45 | 8.7 | 12.2 | 0.00 | 0.00 | 0.00 | 56 | 1021.2 |
| 20260510134216 | 57 | 45 | 7.8 | 9.6 | 0.00 | 0.00 | 0.00 | 59 | 1021.2 |
| 20260510133216 | 57 | 45 | 6.1 | 10.4 | 0.00 | 0.00 | 0.00 | 61 | 1021.0 |
| 20260510132216 | 56 | 68 | 7.0 | 10.4 | 0.00 | 0.00 | 0.00 | 61 | 1021.0 |
| 20260510131216 | 56 | 45 | 5.2 | 9.6 | 0.00 | 0.00 | 0.00 | 62 | 1020.6 |
| 20260510130217 | 56 | 45 | 6.1 | 7.8 | 0.00 | 0.00 | 0.00 | 64 | 1020.3 |
| 20260510125216 | 56 | 45 | 8.7 | 11.3 | 0.00 | 0.00 | 0.00 | 64 | 1020.0 |
| 20260510124216 | 56 | 45 | 9.6 | 11.3 | 0.00 | 0.00 | 0.00 | 66 | 1019.5 |
| 20260510123256 | 57 | 45 | 8.7 | 12.2 | 0.00 | 0.00 | 0.00 | 67 | 1019.6 |
| 20260510122216 | 58 | 23 | 7.8 | 10.4 | 0.00 | 0.00 | 0.00 | 63 | 1019.2 |
| 20260510121216 | 58 | 45 | 8.7 | 11.3 | 0.00 | 0.00 | 0.00 | 63 | 1018.7 |
| 20260510120216 | 57 | 45 | 9.6 | 11.3 | 0.00 | 0.00 | 0.00 | 64 | 1018.1 |
| 20260510115216 | 57 | 45 | 12.2 | 14.8 | 0.00 | 0.00 | 0.00 | 65 | 1017.8 |
| 20260510114216 | 57 | 45 | 10.4 | 13.0 | 0.00 | 0.00 | 0.00 | 66 | 1017.5 |
| 20260510113216 | 58 | 45 | 8.7 | 12.2 | 0.00 | 0.00 | 0.00 | 66 | 1017.1 |
| 20260510112256 | 58 | 45 | 11.3 | 18.2 | 0.00 | 0.00 | 0.00 | 66 | 1017.0 |
| 20260510111216 | 58 | 23 | 9.6 | 13.9 | 0.00 | 0.00 | 0.00 | 66 | 1017.0 |
| 20260510110236 | 58 | 23 | 7.8 | 11.3 | 0.00 | 0.00 | 0.00 | 67 | 1016.9 |
| 20260510105216 | 58 | 23 | 12.2 | 15.6 | 0.00 | 0.00 | 0.00 | 67 | 1016.9 |
| 20260510104216 | 58 | 45 | 8.7 | 13.0 | 0.00 | 0.00 | 0.00 | 67 | 1017.0 |
| 20260510103216 | 58 | 23 | 12.2 | 16.5 | 0.00 | 0.00 | 0.00 | 67 | 1016.8 |
| 20260510102236 | 58 | 45 | 11.3 | 14.8 | 0.00 | 0.00 | 0.00 | 67 | 1016.7 |
| 20260510101216 | 59 | 45 | 7.8 | 10.4 | 0.00 | 0.00 | 0.00 | 66 | 1016.3 |
| 20260510100216 | 59 | 23 | 7.8 | 10.4 | 0.00 | 0.00 | 0.00 | 66 | 1016.2 |
| 20260510095216 | 59 | 45 | 10.4 | 13.9 | 0.00 | 0.00 | 0.00 | 66 | 1016.1 |
| 20260510094236 | 59 | 23 | 8.7 | 11.3 | 0.00 | 0.00 | 0.00 | 66 | 1015.7 |
| 20260510093236 | 60 | 23 | 10.4 | 13.0 | 0.00 | 0.00 | 0.00 | 66 | 1015.6 |
| 20260510092216 | 59 | 23 | 8.7 | 13.9 | 0.00 | 0.00 | 0.00 | 66 | 1015.6 |
| 20260510091256 | 59 | 45 | 9.6 | 12.2 | 0.00 | 0.00 | 0.00 | 66 | 1015.3 |
| 20260510090216 | 60 | 45 | 7.8 | 11.3 | 0.00 | 0.00 | 0.00 | 66 | 1015.6 |
| 20260510085216 | 60 | 23 | 8.7 | 11.3 | 0.00 | 0.00 | 0.00 | 66 | 1015.5 |
| 20260510084256 | 60 | 45 | 8.7 | 13.0 | 0.00 | 0.00 | 0.00 | 67 | 1015.4 |
| 20260510083216 | 61 | 45 | 9.6 | 13.0 | 0.00 | 0.00 | 0.00 | 66 | 1015.5 |
| 20260510082216 | 61 | 23 | 7.0 | 9.6 | 0.00 | 0.00 | 0.00 | 65 | 1015.3 |
| 20260510081216 | 61 | 23 | 8.7 | 13.0 | 0.00 | 0.00 | 0.00 | 66 | 1015.2 |
| 20260510080216 | 62 | 23 | 10.4 | 13.9 | 0.00 | 0.00 | 0.00 | 66 | 1015.1 |
| 20260510075215 | 62 | 23 | 9.6 | 13.0 | 0.00 | 0.00 | 0.00 | 64 | 1015.1 |
| 20260510074236 | 61 | 23 | 9.6 | 13.0 | 0.00 | 0.00 | 0.00 | 65 | 1015.1 |
| 20260510073215 | 61 | 23 | 6.1 | 9.6 | 0.00 | 0.00 | 0.00 | 65 | 1014.8 |
| 20260510072216 | 61 | 0 | 6.1 | 8.7 | 0.00 | 0.00 | 0.00 | 66 | 1014.8 |
| 20260510071216 | 62 | 23 | 7.8 | 11.3 | 0.00 | 0.00 | 0.00 | 67 | 1014.4 |
| 20260510070216 | 62 | 23 | 5.2 | 7.8 | 0.00 | 0.00 | 0.00 | 67 | 1014.5 |
| 20260510065216 | 62 | 23 | 6.1 | 7.8 | 0.00 | 0.00 | 0.00 | 66 | 1014.4 |
| 20260510064215 | 62 | 23 | 5.2 | 8.7 | 0.00 | 0.00 | 0.00 | 66 | 1014.3 |
| 20260510063216 | 63 | 23 | 5.2 | 8.7 | 0.00 | 0.00 | 0.00 | 64 | 1014.3 |
| 20260510062216 | 64 | 45 | 5.2 | 7.8 | 0.00 | 0.00 | 0.00 | 63 | 1014.3 |
| 20260510061215 | 65 | 23 | 5.2 | 7.8 | 0.00 | 0.00 | 0.00 | 62 | 1014.1 |
| 20260510060215 | 65 | 23 | 4.3 | 7.8 | 0.00 | 0.00 | 0.00 | 61 | 1013.9 |
| 20260510055215 | 65 | 45 | 6.1 | 8.7 | 0.00 | 0.00 | 0.00 | 61 | 1013.6 |
| 20260510054215 | 65 | 68 | 5.2 | 8.7 | 0.00 | 0.00 | 0.00 | 61 | 1013.2 |
| 20260510053215 | 64 | 45 | 5.2 | 6.1 | 0.00 | 0.00 | 0.00 | 62 | 1013.2 |
| 20260510052216 | 64 | 45 | 4.3 | 7.0 | 0.00 | 0.00 | 0.00 | 62 | 1013.3 |
| 20260510051236 | 65 | 23 | 4.3 | 7.0 | 0.00 | 0.00 | 0.00 | 62 | 1013.5 |
| 20260510050215 | 65 | 45 | 4.3 | 7.0 | 0.00 | 0.00 | 0.00 | 62 | 1013.3 |
| 20260510045216 | 66 | 45 | 5.2 | 8.7 | 0.00 | 0.00 | 0.00 | 62 | 1013.2 |
| 20260510044237 | 66 | 23 | 4.3 | 7.0 | 0.00 | 0.00 | 0.00 | 61 | 1013.3 |
| 20260510043237 | 67 | 45 | 5.2 | 7.8 | 0.00 | 0.00 | 0.00 | 59 | 1013.1 |
| 20260510042217 | 68 | 45 | 5.2 | 8.7 | 0.00 | 0.00 | 0.00 | 58 | 1013.0 |
| 20260510041217 | 68 | 68 | 5.2 | 7.8 | 0.00 | 0.00 | 0.00 | 57 | 1013.0 |
| 20260510040216 | 69 | 45 | 4.3 | 6.1 | 0.00 | 0.00 | 0.00 | 56 | 1013.0 |
| 20260510035216 | 69 | 68 | 5.2 | 7.8 | 0.00 | 0.00 | 0.00 | 56 | 1013.0 |
| 20260510034216 | 69 | 45 | 6.1 | 8.7 | 0.00 | 0.00 | 0.00 | 56 | 1013.1 |
| 20260510033216 | 69 | 23 | 2.6 | 3.5 | 0.00 | 0.00 | 0.00 | 56 | 1013.1 |
| 20260510032216 | 69 | 45 | 2.6 | 4.3 | 0.00 | 0.00 | 0.00 | 55 | 1012.7 |
| 20260510031236 | 70 | 203 | 0.9 | 0.9 | 0.00 | 0.00 | 0.00 | 55 | 1012.8 |
| 20260510030216 | 71 | 113 | 2.6 | 3.5 | 0.00 | 0.00 | 0.00 | 53 | 1012.4 |
| 20260510025216 | 71 | 90 | 7.0 | 12.2 | 0.00 | 0.00 | 0.00 | 53 | 1011.8 |
| 20260510024216 | 72 | 68 | 10.4 | 13.9 | 0.00 | 0.00 | 0.00 | 52 | 1011.6 |
| 20260510023236 | 72 | 90 | 9.6 | 13.0 | 0.00 | 0.00 | 0.00 | 51 | 1010.8 |
| 20260510022216 | 73 | 68 | 13.9 | 20.9 | 0.00 | 0.00 | 0.00 | 50 | 1010.2 |
| 20260510021236 | 74 | 68 | 7.0 | 12.2 | 0.00 | 0.00 | 0.00 | 49 | 1011.6 |
| 20260510020216 | 75 | 23 | 6.1 | 9.6 | 0.00 | 0.00 | 0.00 | 48 | 1011.6 |
| 20260510015216 | 76 | 68 | 1.7 | 3.5 | 0.00 | 0.00 | 0.00 | 46 | 1011.8 |
| 20260510014217 | 77 | 45 | 6.1 | 8.7 | 0.00 | 0.00 | 0.00 | 44 | 1011.8 |
| 20260510013337 | 77 | 315 | 7.0 | 9.6 | 0.00 | 0.00 | 0.00 | 42 | 1011.6 |
| 20260510012216 | 76 | 23 | 8.7 | 10.4 | 0.00 | 0.00 | 0.00 | 42 | 1011.0 |
| 20260510011216 | 75 | 315 | 3.5 | 4.3 | 0.00 | 0.00 | 0.00 | 43 | 1010.3 |
| 20260510010216 | 76 | 315 | 4.3 | 5.2 | 0.00 | 0.00 | 0.00 | 45 | 1009.7 |
| 20260510005216 | 78 | 158 | 0.9 | 1.7 | 0.00 | 0.00 | 0.00 | 38 | 1008.9 |
| 20260510004216 | 78 | 135 | 2.6 | 5.2 | 0.00 | 0.00 | 0.00 | 38 | 1008.5 |
| 20260510003216 | 79 | 113 | 2.6 | 3.5 | 0.00 | 0.00 | 0.00 | 39 | 1008.1 |
| 20260510002216 | 80 | 0.0 | 0.9 | 0.00 | 0.00 | 0.00 | 37 | 1007.9 | |
| 20260510001236 | 81 | 0.0 | 0.0 | 0.00 | 0.00 | 0.00 | 43 | 1008.0 | |
| 20260510000236 | 82 | 113 | 0.9 | 0.9 | 0.00 | 0.00 | 0.00 | 46 | 1008.1 |
| 20260509235216 | 81 | 113 | 1.7 | 1.7 | 0.00 | 0.00 | 0.00 | 34 | 1007.9 |
| 20260509234216 | 82 | 180 | 1.7 | 3.5 | 0.00 | 0.00 | 0.00 | 37 | 1008.1 |
| 20260509233216 | 82 | 180 | 3.5 | 5.2 | 0.00 | 0.00 | 0.00 | 34 | 1008.2 |
| 20260509232216 | 83 | 180 | 0.9 | 1.7 | 0.00 | 0.00 | 0.00 | 39 | 1008.3 |
| 20260509231216 | 84 | 293 | 1.7 | 2.6 | 0.00 | 0.00 | 0.00 | 35 | 1008.5 |
| 20260509230216 | 84 | 180 | 2.6 | 4.3 | 0.00 | 0.00 | 0.00 | 32 | 1008.5 |
| 20260509225216 | 84 | 293 | 0.9 | 1.7 | 0.00 | 0.00 | 0.00 | 27 | 1008.5 |
| 20260509224216 | 85 | 0.0 | 0.9 | 0.00 | 0.00 | 0.00 | 31 | 1008.4 | |
| 20260509223236 | 85 | 293 | 1.7 | 2.6 | 0.00 | 0.00 | 0.00 | 33 | 1008.3 |
| 20260509222216 | 86 | 158 | 3.5 | 5.2 | 0.00 | 0.00 | 0.00 | 29 | 1008.2 |
| 20260509221216 | 87 | 135 | 5.2 | 8.7 | 0.00 | 0.00 | 0.00 | 30 | 1008.2 |
| 20260509220216 | 87 | 248 | 4.3 | 7.0 | 0.00 | 0.00 | 0.00 | 32 | 1008.2 |
| 20260509215216 | 87 | 158 | 1.7 | 3.5 | 0.00 | 0.00 | 0.00 | 33 | 1008.4 |
| 20260509214216 | 86 | 270 | 2.6 | 4.3 | 0.00 | 0.00 | 0.00 | 32 | 1008.3 |
| 20260509213216 | 86 | 90 | 4.3 | 6.1 | 0.00 | 0.00 | 0.00 | 31 | 1008.3 |
| 20260509212236 | 85 | 203 | 2.6 | 3.5 | 0.00 | 0.00 | 0.00 | 33 | 1008.4 |
| 20260509211216 | 85 | 180 | 6.1 | 7.8 | 0.00 | 0.00 | 0.00 | 31 | 1008.5 |
| 20260509210216 | 84 | 203 | 4.3 | 6.1 | 0.00 | 0.00 | 0.00 | 31 | 1008.5 |
| 20260509205216 | 84 | 225 | 5.2 | 7.0 | 0.00 | 0.00 | 0.00 | 31 | 1008.7 |
| 20260509204216 | 85 | 203 | 8.7 | 13.0 | 0.00 | 0.00 | 0.00 | 31 | 1008.8 |
| 20260509203216 | 85 | 203 | 7.8 | 12.2 | 0.00 | 0.00 | 0.00 | 31 | 1008.8 |
| 20260509202216 | 85 | 180 | 8.7 | 11.3 | 0.00 | 0.00 | 0.00 | 31 | 1008.8 |
| 20260509201216 | 84 | 270 | 5.2 | 6.1 | 0.00 | 0.00 | 0.00 | 32 | 1009.0 |
| 20260509200236 | 84 | 270 | 6.1 | 8.7 | 0.00 | 0.00 | 0.00 | 32 | 1009.1 |
| 20260509195236 | 84 | 203 | 6.1 | 9.6 | 0.00 | 0.00 | 0.00 | 30 | 1009.2 |
| 20260509194215 | 83 | 0.0 | 0.9 | 0.00 | 0.00 | 0.00 | 36 | 1009.2 | |
| 20260509193215 | 82 | 248 | 7.0 | 7.8 | 0.00 | 0.00 | 0.00 | 34 | 1009.4 |
| 20260509192215 | 83 | 180 | 5.2 | 9.6 | 0.00 | 0.00 | 0.00 | 36 | 1009.4 |
| 20260509191256 | 82 | 225 | 4.3 | 6.1 | 0.00 | 0.00 | 0.00 | 37 | 1009.4 |
| 20260509190236 | 82 | 270 | 5.2 | 7.0 | 0.00 | 0.00 | 0.00 | 36 | 1009.5 |
| 20260509185215 | 82 | 248 | 5.2 | 7.0 | 0.00 | 0.00 | 0.00 | 41 | 1009.8 |
| 20260509184216 | 82 | 248 | 3.5 | 6.1 | 0.00 | 0.00 | 0.00 | 34 | 1009.7 |
| 20260509183236 | 83 | 248 | 5.2 | 9.6 | 0.00 | 0.00 | 0.00 | 37 | 1010.0 |
| 20260509182216 | 82 | 225 | 7.8 | 11.3 | 0.00 | 0.00 | 0.00 | 37 | 1010.1 |
| 20260509181216 | 82 | 248 | 10.4 | 13.9 | 0.00 | 0.00 | 0.00 | 38 | 1010.3 |
| 20260509180216 | 82 | 270 | 13.0 | 16.5 | 0.00 | 0.00 | 0.00 | 35 | 1010.4 |
| 20260509175256 | 82 | 248 | 7.8 | 12.2 | 0.00 | 0.00 | 0.00 | 41 | 1010.7 |
| 20260509174215 | 81 | 225 | 7.8 | 9.6 | 0.00 | 0.00 | 0.00 | 43 | 1010.8 |
| 20260509173215 | 80 | 270 | 7.8 | 9.6 | 0.00 | 0.00 | 0.00 | 44 | 1011.1 |
| 20260509172216 | 79 | 225 | 7.8 | 10.4 | 0.00 | 0.00 | 0.00 | 44 | 1011.1 |
| 20260509171215 | 79 | 225 | 9.6 | 13.9 | 0.00 | 0.00 | 0.00 | 42 | 1011.0 |
| 20260509170218 | 79 | 248 | 9.6 | 13.0 | 0.00 | 0.00 | 0.00 | 44 | 1011.2 |
| 20260509165215 | 78 | 248 | 7.8 | 11.3 | 0.00 | 0.00 | 0.00 | 47 | 1011.3 |